Location: Unspecified
(0.0000°N, 0.0000°E)
Time: 15:18:07
(UTC+00:00)

ISS - Visible Passes

Search period start: 26 May 2026 00:00
Search period end: 05 June 2026 00:00
Orbit: 413 x 424 km, 51.6° (Epoch: 26 May)

Date Brightness Start Highest point End Pass type
(mag) Time Alt. Az. Time Alt. Az. Time Alt. Az.
2 Jun -0.8 20:04:55 10° NW 20:05:40 16° NW 20:05:40 16° NW visible
3 Jun -3.4 19:17:04 10° NNW 19:20:10 47° NE 19:20:10 47° NE visible
4 Jun -2.1 18:29:46 10° N 18:32:18 20° NE 18:34:42 11° ESE visible
4 Jun -0.5 20:07:25 10° W 20:07:40 11° WSW 20:07:40 11° WSW visible
